Regional Weather Roundup
Issued by NWS

Home | Current Version | Previous Version | Text Only | Print | Product List | Glossary Off
Versions: 1 2 3 4 5 6 7 8 9 10 11 12 13 14 15 16 17 18 19 20 21 22 23 24 25 26 27 28 29 30 31 32 33 34 35 36 37 38 39 40 41 42 43 44 45 46 47 48 49 50

000
ASUS43 KMKX 012021
RWRWI

WISCONSIN REGIONAL WEATHER ROUNDUP
NATIONAL WEATHER SERVICE MILWAUKEE/SULLIVAN WI
300 PM CDT FRI AUG 01 2014

NOTE: "FAIR" INDICATES FEW OR NO CLOUDS BELOW 12,000 FEET WITH NO
SIGNIFICANT WEATHER AND/OR OBSTRUCTIONS TO VISIBILITY.

WIZ001-002-006>008-014>016-023>028-012100-
NORTHWEST WISCONSIN

CITY           SKY/WX    TMP DP  RH WIND       PRES   REMARKS
SUPERIOR ARPT  MOSUNNY   70  57  62 E5        30.06F
ASHLAND        PTSUNNY   77  58  51 N6        30.08S
HAYWARD        MOSUNNY   80  52  37 NW6       30.08S HX  80
SIREN          SUNNY     80  51  36 N7        30.07S HX  80
RICE LAKE      MOSUNNY   80  53  40 NW7       30.08F HX  80
LADYSMITH      MOSUNNY   79  59  49 NW7       30.08F HX  80
EAU CLAIRE     PTSUNNY   79  61  53 N5        30.04F HX  80
MENOMONIE      CLEAR     82  57  41 W5        30.05F HX  82
NEW RICHMOND   MOSUNNY   82  54  36 NW7       30.07S HX  81
OSCEOLA        SUNNY     82  57  42 W3        30.09S HX  81
$$

WIZ003>005-009-010-017-018-012100-
NORTH CENTRAL WISCONSIN

CITY           SKY/WX    TMP DP  RH WIND       PRES   REMARKS
WOODRUFF       MOSUNNY   77  51  39 CALM      30.09R
RHINELANDER    SUNNY     77  52  41 VRB5      30.09R
EAGLE RIVER    MOSUNNY   75  46  35 NW5       30.08S
LAND O LAKES   MOSUNNY   75  49  39 N7        30.10R
PHILLIPS       PTSUNNY   75  55  48 N5        30.08S
TOMAHAWK       MOSUNNY   77  54  45 CALM      30.08R
MEDFORD        PTSUNNY   77  60  55 NW5       30.06F
MERRILL        PTSUNNY   77  60  56 SW7       30.07R
$$

WIZ029-030-035-036-043>047-012100-
CENTRAL WISCONSIN

CITY           SKY/WX    TMP DP  RH WIND       PRES   REMARKS
WAUSAU         LGT RAIN  66  63  90 N3        30.05S
MOSINEE        TSTM      70  64  83 N6        30.06S
MARSHFIELD     MOSUNNY   75  67  76 NW3       30.06S
STEVENS POINT  PTSUNNY   78  61  54 W8        30.05S HX  80
WAUPACA        PTSUNNY   86  55  35 W5        30.05R HX  84
WAUTOMA        MOSUNNY   71  63  76 S7        30.07R
WISC RAPIDS    MOSUNNY   82  63  52 W10       30.06S HX  83
CAMP DOUGLAS   PTSUNNY   81  63  54 SW9       30.06S HX  82
$$

WIZ011>013-019>022-031-037>040-048>050-012100-
NORTHEAST WISCONSIN

CITY           SKY/WX    TMP DP  RH WIND       PRES   REMARKS
ANTIGO         MOSUNNY   76  55  48 NW5       30.08R
STURGEON BAY   MOSUNNY   75  63  64 SE6       30.05S
GREEN BAY      PTSUNNY   80  61  52 SW5       30.03F HX  81
MANITOWOC      MOSUNNY   76  63  64 S9        30.04F
APPLETON       PTSUNNY   77  57  50 SW6       30.06S THUNDER
CLINTONVILLE   PTSUNNY   68  57  68 S5        30.06R
OSHKOSH        PTSUNNY   73  57  57 SW9       30.06R
$$

WIZ032>034-041-042-053>061-012100-
SOUTHWEST WISCONSIN

CITY           SKY/WX    TMP DP  RH WIND       PRES   REMARKS
LA CROSSE      SUNNY     84  59  42 VRB6      30.05F HX  84
SPARTA         SUNNY     82  53  36 W9        30.07R HX  81
VIROQUA        FAIR      80  58  47 NW7       30.09S HX  80
BOSCOBEL       MOSUNNY   86  56  35 VRB6      30.06F HX  85
PRAIRIE DU CHI SUNNY     82  52  35 S6        30.06S HX  81
PLATTEVILLE    FAIR      82  55  39 SW7       30.08F HX  81
$$

WIZ056-057-062-063-064-067-068-012100-
SOUTH CENTRAL WISCONSIN

CITY           SKY/WX    TMP DP  RH WIND       PRES   REMARKS
BARABOO/DELLS  MOSUNNY   84  53  33 SW8       30.06S HX  83
LONE ROCK      SUNNY     86  59  39 NW5       30.05F HX  85
WATERTOWN      MOSUNNY   81  61  49 W7        30.04F HX  82
MADISON        MOSUNNY   84  57  39 SW6       30.05F HX  83
MIDDLETON      MOCLDY    84  55  36 W6        30.05F HX  83
MONROE         SUNNY     81  54  39 CALM      30.07S HX  80
JANESVILLE     MOSUNNY   84  48  28 NW6       30.05F HX  82
$$

WIZ051-052-058>065-066-070>072-012100-
SOUTHEAST WISCONSIN

CITY           SKY/WX    TMP DP  RH WIND       PRES   REMARKS
MILWAUKEE      PTSUNNY   83  56  39 W8        30.04F HX  82
WAUKESHA       MOSUNNY   81  55  41 MISG      30.06F HX  80
MILWAUKEE/TIMM SUNNY     82  52  34 W12       30.05F HX  81
RACINE         MOSUNNY   80  60  50 SE9       30.07S HX  81
BURLINGTON     PTSUNNY   81  54  39 SW3       30.06S HX  80
KENOSHA        PTSUNNY   82  58  43 W3        30.06S HX  82
FOND DU LAC    PTSUNNY   78  61  55 NW17G24   30.05S THUNDER HX  80
SHEBOYGAN      MOSUNNY   81  59  47 CALM      30.04F HX  81
WEST BEND      MOSUNNY   81  55  41 W3G9      30.05S HX  80
JUNEAU         MOSUNNY   79  52  39 W3        30.06F
$$

LSZ147-162-012100-
LAKE SUPERIOR

STATION/POSITION TIME  TEMP    WIND        PRES    WAVE
                       AIR SEA DIR/SP/G            HT/PER
                 (UTC) (F)     (DEG/KT/KT) (MB)    (FT/S)
W MID LAKE BUOY  1950   49 46   40/  2/  2 1019.0S   0
PORT WING        1900   63      20/  6/  7 1018.6S
SAXON HARBOR     1900           CALM  /  3 1019.0
$$

LMZ867-665-643>646-012100-
LAKE MICHIGAN

STATION/POSITION TIME  TEMP    WIND        PRES    WAVE
                       AIR SEA DIR/SP/G            HT/PER
                 (UTC) (F)     (DEG/KT/KT) (MB)    (FT/S)
N MID LAKE BUOY  1950   61 60   50/  4/  6 1017.5F   1
NORTHPORT PIER   1900   63     140/  8/  8 1017.6S
SISTER BAY       1941   75     360/  7/  7   N/A
ALGOMA LAKESHORE 1951          100/  7/  7   N/A
KEWAUNEE LAKESHO 1900   63     150/  5/  5 1017.0F
SHEBOYGAN LAKESH 2000   71     170/ 17/ 18 1017.0F
PORT WASHINGTON  1940   74     190/  7/  9 1017.6F
ATWATER BUOY     2000   68     140/ 10     1018.5S
MILWAUKEE LAKESH 2000   69     140/ 12/ 14   N/A
S MID LAKE BUOY  1950   68 67  160/  4/  6 1018.3F   0
KENOSHA   LAKESH 2000   71     170/ 14/ 16 1017.3S
$$

TC  - TEMPERATURE IN CELSIUS
VSB - VISIBILITY IN STATUTE MILES
WCI - WIND CHILL INDEX
HX  - HEAT INDEX



USA.gov is the U.S. government's official web portal to all federal, state and local government web resources and services.